Date String (YYYY-MM-DD hh:mm:ss) UTC,Instrument flags,Ambient pressure (hPa),Sample flow (lpm),Bypass flow (lpm),Sample temperature (°C),Ambient temperature (°C),ASC tube jacket temperature (°C),LED temperature (°C),Box temperature (°C),Sample RH (%),Span deviation,Mass concentration (μg/m³),Mass concentration (μg/m³),Mass concentration (μg/m³)
DateTimeUTC,F1_M11,P_M11,Q1_M11,Q2_M11,T1_M11,T2_M11,T3_M11,T4_M11,T5_M11,U1_M11,ZSPAN_M11,X0_M11,X2_M11,X1_M11
2021-10-22 04:00:00,,0831.0,4.99,0.00,28.4,27.5,00.0,37.5,30.1,09.0,0000.0,0016.70,0004.26,0003.19
2021-10-22 04:01:00,,0831.0,5.00,0.00,28.4,27.5,00.0,37.5,30.1,09.1,0000.0,0016.45,0004.28,0003.19
2021-10-22 04:02:00,,0830.9,5.00,0.00,28.4,27.4,00.0,37.5,30.1,09.0,0000.0,0016.59,0004.32,0003.19
2021-10-22 04:03:00,,0831.0,5.01,0.00,28.4,27.5,00.0,37.5,30.1,09.0,0000.0,0017.62,0004.31,0003.20
2021-10-22 04:04:00,,0831.0,4.99,0.00,28.4,27.4,00.0,37.5,30.1,09.0,0000.0,0018.03,0004.38,0003.20
2021-10-22 04:05:00,,0831.0,4.99,0.00,28.4,27.4,00.0,37.5,30.1,09.1,0000.0,0017.22,0004.47,0003.22
2021-10-22 04:06:00,,0831.0,5.01,0.00,28.4,27.4,00.0,37.5,30.0,09.2,0000.0,0015.33,0004.43,0003.22
2021-10-22 04:07:00,,0831.0,5.00,0.00,28.3,27.4,00.0,37.5,30.0,09.2,0000.0,0013.64,0004.41,0003.22
2021-10-22 04:08:00,,0831.1,5.00,0.00,28.3,27.4,00.0,37.5,30.0,09.1,0000.0,0013.21,0004.37,0003.22
2021-10-22 04:09:00,,0831.0,4.99,0.00,28.3,27.4,00.0,37.5,30.1,09.1,0000.0,0013.80,0004.41,0003.22
2021-10-22 04:10:00,,0831.0,5.01,0.00,28.3,27.4,00.0,37.5,30.0,09.0,0000.0,0014.09,0004.47,0003.22
2021-10-22 04:11:00,,0831.0,5.01,0.00,28.3,27.4,00.0,37.5,30.0,09.1,0000.0,0014.58,0004.49,0003.22
2021-10-22 04:12:00,,0830.9,5.00,0.00,28.3,27.4,00.0,37.5,30.0,09.1,0000.0,0015.14,0004.51,0003.22
2021-10-22 04:13:00,,0830.9,4.99,0.00,28.3,27.4,00.0,37.5,30.0,09.1,0000.0,0015.12,0004.54,0003.22
2021-10-22 04:14:00,,0830.9,5.00,0.00,28.3,27.3,00.0,37.4,30.0,09.2,0000.0,0013.75,0004.55,0003.22
2021-10-22 04:15:00,,0830.9,4.99,0.00,28.3,27.3,00.0,37.4,30.0,09.2,0000.0,0013.64,0004.53,0003.21
2021-10-22 04:16:00,,0830.9,5.00,0.00,28.3,27.3,00.0,37.4,30.0,09.1,0000.0,0014.77,0004.52,0003.20
2021-10-22 04:17:00,,0830.9,4.99,0.00,28.3,27.3,00.0,37.4,29.9,09.1,0000.0,0014.72,0004.54,0003.21
2021-10-22 04:18:00,,0830.9,5.01,0.00,28.3,27.3,00.0,37.4,29.9,09.1,0000.0,0015.14,0004.54,0003.21
2021-10-22 04:19:00,,0830.9,4.99,0.00,28.2,27.3,00.0,37.4,29.9,09.1,0000.0,0015.09,0004.55,0003.22
2021-10-22 04:20:00,,0830.9,5.01,0.00,28.2,27.3,00.0,37.4,29.9,09.1,0000.0,0014.77,0004.54,0003.23
2021-10-22 04:21:00,,0830.9,4.99,0.00,28.2,27.3,00.0,37.4,30.0,09.1,0000.0,0014.88,0004.52,0003.23
2021-10-22 04:22:00,,0830.9,5.00,0.00,28.2,27.3,00.0,37.4,29.9,09.2,0000.0,0015.34,0004.51,0003.23
2021-10-22 04:23:00,,0830.9,5.00,0.00,28.2,27.3,00.0,37.4,30.0,09.1,0000.0,0014.68,0004.47,0003.23
2021-10-22 04:24:00,,0830.9,5.00,0.00,28.2,27.3,00.0,37.4,29.9,09.1,0000.0,0015.31,0004.41,0003.23
2021-10-22 04:25:00,,0830.9,5.00,0.00,28.2,27.3,00.0,37.4,29.9,09.1,0000.0,0016.16,0004.43,0003.23
2021-10-22 04:26:00,,0830.9,5.01,0.00,28.2,27.3,00.0,37.4,29.9,09.1,0000.0,0016.86,0004.42,0003.24
2021-10-22 04:27:00,,0830.9,4.99,0.00,28.2,27.3,00.0,37.4,29.9,09.1,0000.0,0016.30,0004.40,0003.25
2021-10-22 04:28:00,,0830.8,5.01,0.00,28.2,27.3,00.0,37.4,29.9,09.2,0000.0,0016.86,0004.41,0003.25
2021-10-22 04:29:00,,0830.9,5.00,0.00,28.2,27.2,00.0,37.4,29.9,09.2,0000.0,0017.77,0004.47,0003.25
2021-10-22 04:30:00,,0830.9,4.99,0.00,28.2,27.2,00.0,37.4,29.9,09.2,0000.0,0017.89,0004.49,0003.25
2021-10-22 04:31:00,,0830.9,5.01,0.00,28.2,27.2,00.0,37.3,29.9,09.2,0000.0,0019.05,0004.49,0003.25
2021-10-22 04:32:00,,0830.9,4.99,0.00,28.2,27.2,00.0,37.3,29.9,09.2,0000.0,0019.47,0004.46,0003.26
2021-10-22 04:33:00,,0830.9,4.99,0.00,28.2,27.2,00.0,37.3,29.9,09.2,0000.0,0018.36,0004.48,0003.27
2021-10-22 04:34:00,,0830.8,4.99,0.00,28.2,27.2,00.0,37.3,29.9,09.2,0000.0,0018.34,0004.54,0003.27
2021-10-22 04:35:00,,0830.8,5.01,0.00,28.2,27.2,00.0,37.3,29.9,09.3,0000.0,0018.64,0004.65,0003.29
2021-10-22 04:36:00,,0830.8,5.01,0.00,28.1,27.1,00.0,37.3,29.8,09.2,0000.0,0018.71,0004.66,0003.29
2021-10-22 04:37:00,,0830.8,5.00,0.00,28.1,27.1,00.0,37.3,29.8,09.2,0000.0,0018.60,0004.69,0003.30
2021-10-22 04:38:00,,0830.8,5.00,0.00,28.1,27.2,00.0,37.3,29.9,09.2,0000.0,0017.68,0004.68,0003.30
2021-10-22 04:39:00,,0830.8,5.00,0.00,28.1,27.2,00.0,37.3,29.8,09.3,0000.0,0016.78,0004.64,0003.30
2021-10-22 04:40:00,,0830.8,5.01,0.00,28.1,27.1,00.0,37.3,29.8,09.3,0000.0,0016.21,0004.61,0003.29
2021-10-22 04:41:00,,0830.8,5.00,0.00,28.1,27.1,00.0,37.3,29.8,09.3,0000.0,0016.58,0004.62,0003.29
2021-10-22 04:42:00,,0830.8,4.99,0.00,28.1,27.1,00.0,37.3,29.8,09.2,0000.0,0015.90,0004.64,0003.28
2021-10-22 04:43:00,,0830.8,5.01,0.00,28.1,27.1,00.0,37.3,29.8,09.2,0000.0,0014.89,0004.64,0003.28
2021-10-22 04:44:00,,0830.8,5.00,0.00,28.1,27.1,00.0,37.3,29.8,09.2,0000.0,0015.09,0004.63,0003.27
2021-10-22 04:45:00,,0830.8,5.00,0.00,28.1,27.1,00.0,37.3,29.8,09.5,0000.0,0015.39,0004.53,0003.25
2021-10-22 04:46:00,,0830.8,5.00,0.00,28.1,27.1,00.0,37.3,29.8,09.5,0000.0,0013.86,0004.38,0003.22
2021-10-22 04:47:00,,0830.7,5.00,0.00,28.1,27.1,00.0,37.3,29.8,09.3,0000.0,0012.97,0004.33,0003.22
2021-10-22 04:48:00,,0830.7,5.00,0.00,28.1,27.1,00.0,37.3,29.8,09.2,0000.0,0012.34,0004.35,0003.22
2021-10-22 04:49:00,,0830.7,5.00,0.00,28.1,27.1,00.0,37.3,29.8,09.2,0000.0,0012.32,0004.36,0003.22
2021-10-22 04:50:00,,0830.8,5.00,0.00,28.1,27.1,00.0,37.2,29.8,09.2,0000.0,0012.79,0004.37,0003.21
2021-10-22 04:51:00,,0830.8,5.00,0.00,28.1,27.1,00.0,37.2,29.8,09.1,0000.0,0012.50,0004.38,0003.22
2021-10-22 04:52:00,,0830.8,4.99,0.00,28.1,27.1,00.0,37.2,29.7,09.4,0000.0,0011.97,0004.33,0003.21
2021-10-22 04:53:00,,0830.7,5.01,0.00,28.0,27.1,00.0,37.2,29.7,09.4,0000.0,0011.08,0004.25,0003.20
2021-10-22 04:54:00,,0830.7,5.00,0.00,28.0,27.1,00.0,37.2,29.8,09.3,0000.0,0010.82,0004.18,0003.19
2021-10-22 04:55:00,,0830.7,5.00,0.00,28.0,27.1,00.0,37.2,29.8,09.2,0000.0,0011.77,0004.18,0003.20
2021-10-22 04:56:00,,0830.6,5.00,0.00,28.0,27.1,00.0,37.2,29.8,09.2,0000.0,0012.14,0004.25,0003.21
2021-10-22 04:57:00,,0830.6,4.99,0.00,28.0,27.1,00.0,37.2,29.8,09.2,0000.0,0012.86,0004.33,0003.23
2021-10-22 04:58:00,,0830.6,5.01,0.00,28.0,27.1,00.0,37.2,29.8,09.2,0000.0,0014.13,0004.39,0003.23
2021-10-22 04:59:00,,0830.6,5.00,0.00,28.0,27.1,00.0,37.2,29.8,09.3,0000.0,0014.04,0004.34,0003.21
